Satellite-Ground Cal/Val Region Overpasses Predictions

Prediction of Satellite NPP Overpassing Cal/Val Region: PacNW

Region Location: (Latitude: 10.00, Longitude: 139.50) to (Latitude: 22.70, Longitude: 165.60).

Table of predicted overpasses for the next 14.0 days since TLE Epoch: 10/25/2019
Interval Starting Time Starting Location Ending Time Ending Location
1 10/26/2019 02:45:55 ( 10.05, 158.27) 10/26/2019 02:49:30 ( 22.67, 155.27)
2 10/26/2019 15:17:48 ( 22.67, 155.49) 10/26/2019 15:21:23 ( 10.05, 152.50)
3 10/27/2019 02:26:52 ( 10.03, 163.03) 10/27/2019 02:30:27 ( 22.65, 160.03)
4 10/27/2019 14:58:45 ( 22.68, 160.25) 10/27/2019 15:02:21 ( 10.00, 157.24)
5 10/28/2019 02:10:30 ( 19.41, 165.59) 10/28/2019 02:11:26 ( 22.70, 164.78)
6 10/28/2019 03:49:20 ( 10.02, 142.41) 10/28/2019 03:52:49 ( 22.29, 139.50)
7 10/28/2019 14:39:44 ( 22.64, 165.00) 10/28/2019 14:43:19 ( 10.02, 162.00)
8 10/28/2019 16:21:13 ( 22.69, 139.64) 10/28/2019 16:21:22 ( 22.17, 139.51)
9 10/29/2019 03:30:17 ( 10.01, 147.17) 10/29/2019 03:33:53 ( 22.69, 144.16)
10 10/29/2019 16:02:11 ( 22.65, 144.39) 10/29/2019 16:05:46 ( 10.03, 141.39)
11 10/30/2019 03:11:16 ( 10.05, 151.92) 10/30/2019 03:14:51 ( 22.67, 148.92)
12 10/30/2019 15:43:09 ( 22.66, 149.15) 10/30/2019 15:46:44 ( 10.04, 146.15)
13 10/31/2019 02:52:13 ( 10.04, 156.68) 10/31/2019 02:55:48 ( 22.66, 153.68)
14 10/31/2019 15:24:06 ( 22.68, 153.91) 10/31/2019 15:27:41 ( 10.06, 150.91)
15 11/01/2019 02:33:11 ( 10.02, 161.44) 11/01/2019 02:36:46 ( 22.64, 158.44)
16 11/01/2019 15:05:04 ( 22.69, 158.67) 11/01/2019 15:08:40 ( 10.01, 155.66)
17 11/02/2019 02:14:54 ( 12.65, 165.60) 11/02/2019 02:17:45 ( 22.69, 163.19)
18 11/02/2019 03:55:39 ( 10.01, 140.83) 11/02/2019 03:57:16 ( 15.71, 139.51)
19 11/02/2019 14:46:02 ( 22.65, 163.41) 11/02/2019 14:49:37 ( 10.03, 160.42)
20 11/03/2019 03:36:37 ( 10.06, 145.57) 11/03/2019 03:40:12 ( 22.68, 142.57)
21 11/03/2019 14:30:04 ( 11.86, 165.59) 11/03/2019 14:30:35 ( 10.04, 165.18)
22 11/03/2019 16:08:30 ( 22.66, 142.80) 11/03/2019 16:12:05 ( 10.04, 139.80)
23 11/04/2019 03:17:35 ( 10.04, 150.33) 11/04/2019 03:21:10 ( 22.67, 147.34)
24 11/04/2019 15:49:27 ( 22.67, 147.56) 11/04/2019 15:53:02 ( 10.05, 144.56)
25 11/05/2019 02:58:32 ( 10.03, 155.09) 11/05/2019 03:02:07 ( 22.65, 152.10)
26 11/05/2019 15:30:25 ( 22.68, 152.32) 11/05/2019 15:34:01 ( 10.00, 149.31)
27 11/06/2019 02:39:30 ( 10.02, 159.85) 11/06/2019 02:43:06 ( 22.70, 156.84)
28 11/06/2019 15:11:22 ( 22.70, 157.08) 11/06/2019 15:14:58 ( 10.02, 154.07)
29 11/07/2019 02:20:27 ( 10.00, 164.61) 11/07/2019 02:24:03 ( 22.68, 161.60)
30 11/07/2019 14:52:21 ( 22.65, 161.83) 11/07/2019 14:55:56 ( 10.03, 158.83)
31 11/08/2019 03:42:56 ( 10.06, 143.98) 11/08/2019 03:46:31 ( 22.68, 140.99)
32 11/08/2019 14:34:27 ( 18.62, 165.59) 11/08/2019 14:36:53 ( 10.04, 163.59)


NCC Satellite Cal/Val Overpasses Prediction Service
